Flag for Germany Weather past 2 weeks in Norderstedt, Schleswig-Holstein, Germany

39 °F

Passing clouds.

Feels Like: 34 °F
Forecast: 35 / 43 °F
Wind: 7 mph from West

Location: Hamburg-Fuhlsbuettel

Current Time: Nov 26, 2015 at 12:33:16 AM

Latest Report: Nov 26, 2015 at 12:20 AM

Visibility: N/A

Pressure: 29.68 "Hg

Humidity: 100%

Dew point: 39 °F

Location of NorderstedtLocation

Historic Weather in Norderstedt — Graph


Norderstedt temperature yesterday

Maximum temperature yesterday: 43 °F (at 1:50 PM)
Minimum temperature yesterday: 36 °F (at 12:20 AM)
Average temperature yesterday: 40 °F

Past Weeks' High & Low Weather Summary

High61 °F (Nov 11, 12:20 AM)100% (Nov 11, 12:50 PM)30.21 "Hg (Nov 11, 12:50 PM)
Low30 °F (Nov 22, 2:20 AM)58% (Nov 13, 3:50 PM)29.30 "Hg (Nov 21, 1:20 AM)
Average46 °F88%29.76 "Hg
* Reported Nov 11 12:20 AM — Nov 25 11:20 PM, Norderstedt, Weather by CustomWeather, © 2015

Note: Actual official high and low records may vary slightly from our data, if they occured in-between our weather recording intervals... More about our weather records


Norderstedt weather history for previous 24 hours

Time TempWeatherWind HumidityBarometerVisibility
11:20 PM
Wed, Nov 25
39 °FPassing clouds.6 mph100%29.68 "HgN/A
10:50 PM41 °FPassing clouds.6 mph93%29.68 "Hg6 mi
10:20 PM41 °FPartly cloudy.5 mph93%29.65 "HgN/A
9:50 PM41 °FPassing clouds.6 mph93%29.65 "HgN/A
9:20 PM37 °FFog.3 mph100%29.65 "Hg6 mi
8:50 PM39 °FFog.6 mph100%29.62 "Hg6 mi
8:20 PM41 °FFog.5 mph93%29.62 "Hg5 mi
7:50 PM41 °FFog.5 mph93%29.62 "Hg4 mi
7:20 PM41 °FFog.5 mph100%29.62 "Hg4 mi
6:50 PM41 °FPassing clouds.6 mph100%29.62 "Hg4 mi
6:20 PM41 °FPartly cloudy.6 mph100%29.59 "Hg4 mi
5:50 PM43 °FLight rain. Passing clouds.6 mph93%29.59 "Hg4 mi
5:20 PM43 °FLight rain. Passing clouds.6 mph93%29.59 "Hg4 mi
4:50 PM43 °FPartly cloudy.7 mph93%29.59 "Hg4 mi
4:20 PM43 °FPassing clouds.6 mph93%29.59 "Hg4 mi
3:50 PM43 °FPartly sunny.5 mph93%29.56 "Hg4 mi
3:20 PM43 °FPartly sunny.7 mph93%29.56 "Hg4 mi
2:50 PM43 °FLight rain. Partly sunny.7 mph93%29.56 "Hg4 mi
2:20 PM43 °FLow clouds.9 mph93%29.56 "Hg4 mi
1:50 PM43 °FLow clouds.9 mph93%29.56 "Hg4 mi
1:20 PM41 °FLow clouds.8 mph100%29.56 "Hg4 mi
12:50 PM41 °FFog.9 mph100%29.56 "Hg2 mi
12:20 PM41 °FDrizzle. Fog.8 mph100%29.56 "Hg2 mi
11:50 AM41 °FDrizzle. Fog.10 mph100%29.59 "Hg2 mi
11:20 AM41 °FFog.12 mph93%29.59 "Hg2 mi
10:50 AM39 °FFog.12 mph100%29.59 "Hg2 mi
10:20 AM39 °FFog.12 mph100%29.59 "Hg2 mi
9:50 AM39 °FFog.9 mph100%29.59 "Hg2 mi
9:20 AM39 °FDrizzle. Fog.10 mph100%29.59 "Hg1 mi
8:50 AM39 °FDrizzle. Fog.10 mph93%29.59 "Hg2 mi
7:20 AM37 °FDrizzle. Fog.10 mph100%29.59 "Hg2 mi
6:50 AM37 °FLight rain. Fog.10 mph100%29.59 "Hg3 mi
6:20 AM37 °FLight rain. Low clouds.10 mph93%29.59 "Hg3 mi
5:50 AM37 °FLight rain. Low clouds.10 mph100%29.59 "Hg4 mi
5:20 AM37 °FLow clouds.12 mph93%29.59 "Hg4 mi
4:20 AM37 °FLight rain. Low clouds.10 mph93%29.62 "Hg6 mi
3:50 AM37 °FLight rain. Low clouds.10 mph93%29.62 "Hg6 mi
3:20 AM36 °FLight rain. Low clouds.12 mph100%29.62 "Hg6 mi
2:50 AM36 °FLight rain. Low clouds.15 mph100%29.62 "Hg6 mi
2:20 AM37 °FLight rain. Passing clouds.14 mph93%29.65 "HgN/A
1:20 AM37 °FLight rain. Passing clouds.13 mph93%29.65 "HgN/A
12:50 AM36 °FLight rain. Passing clouds.15 mph100%29.65 "HgN/A
12:20 AM36 °FLight rain. Passing clouds.13 mph93%29.68 "HgN/A
Weather by CustomWeather, © 2015

See weather overviewHow to use our weather pages